Weather Roundup
Issued by NWS Chicago, IL

Home | Current Version | Previous Version | Text Only | Print | Product List | Glossary Off
Versions: 1 2 3 4 5 6 7 8 9 10 11 12 13 14 15 16 17 18 19 20 21 22 23 24 25 26 27 28 29 30 31 32 33 34 35 36 37 38 39 40 41 42 43 44 45 46 47 48 49 50

000
NZUS59 KLOT 260708
HRRLOT

CHICAGO AREA WEATHER ROUNDUP
NATIONAL WEATHER SERVICE CHICAGO/ROMEOVILLE IL
200 AM CDT TUE MAY 26 2015

NOTE: "FAIR" INDICATES FEW OR NO CLOUDS BELOW 12,000 FEET WITH NO
SIGNIFICANT WEATHER AND/OR OBSTRUCTIONS TO VISIBILITY.

* THESE STATIONS ARE NOT UNDER NWS QUALITY CONTROL. THEY ALSO MAY NOT
  REPORT WEATHER SUCH AS PRECIPITATION OR FOG.

ILZ005-006-012>014-019>023-260800-
NORTHEAST ILLINOIS

CITY           SKY/WX    TMP DP  RH WIND       PRES   REMARKS
OHARE          PTCLDY    70  63  78 S12       29.93S
MIDWAY         PTCLDY    72  65  78 S12       29.93F
AURORA         PTCLDY    66  60  81 SE6       29.93F
LANSING*       PTCLDY    67  62  84 S10       29.96F
JOLIET*        CLEAR     70  66  88 S8        29.94S
WAUKEGAN       PTCLDY    68  60  75 S10       29.92S
DUPAGE AIRPORT CLEAR     68  63  84 S12       29.93F
WHEELING       CLEAR     70  62  76 S10       29.94F
KANKAKEE*      CLEAR     67  65  92 S12       29.97S
MORRIS*        CLEAR     67  64  89 S7        29.93S
LEWIS AIRPORT* CLEAR     68  63  86 S13       29.94F
NORTHERLY IS     N/A     71  63  75 S10         N/A
$$

WIZ051-052-058>065-066-070>072-260800-
SOUTHEAST WISCONSIN

CITY           SKY/WX    TMP DP  RH WIND       PRES   REMARKS
MILWAUKEE      PTCLDY    68  59  73 SW10      29.91R
KENOSHA*       CLEAR     68  60  75 SW7       29.92S
RACINE*        PTCLDY    68  59  73 SW7       29.93R
BURLINGTON     CLEAR     63  59  87 S7        29.92S
WAUKESHA       CLEAR     63  59  88 S5        29.92S
WEST BEND      CLEAR     64  59  82 S5        29.89S
$$

INZ001>003-010>013-019-020-260800-
NORTHWEST INDIANA

CITY           SKY/WX    TMP DP  RH WIND       PRES   REMARKS
GARY*          PTCLDY    71  65  83 S7        29.96F
MICHIGAN CITY* NOT AVBL
RENSSELAER*    NOT AVBL
VALPARAISO     PTCLDY    67  63  87 S7        29.98F
$$

LMZ740>746-260800-
SOUTHERN LAKE MICHIGAN

STATION/POSITION TIME  SKY/WX   TEMP WIND        PRES    VSBY
                                AIR  DIR/SP/G
                 (UTC)          (F)  (DEG/KT/KT) (MB)    (MI)
HARRISON CRIB    0600            70  190/ 22/ 25   N/A
BURNHAM HARBOR   0700            71  190/ 10/ 18   N/A
CALUMET HARBOR   0600            71  190/  9/ 14   N/A
BURNS HARBOR     0600            70  190/ 10/ 15 1015.2S
MICHIGAN CITY    0600            70  170/ 13/ 16   N/A
$$

ABBREVIATIONS USED IN REMARKS
   TC - TEMPERATURE IN CELSIUS
  WCI - WIND CHILL INDEX
   HX - HEAT INDEX
  VSB - VISIBILITY
$$



USA.gov is the U.S. government's official web portal to all federal, state and local government web resources and services.